This is the latest recevied weather packets stored in our database for station/object N3SBK. If no packets are shown the sender has not sent any weather packets the latest 10 day(s).
| Time | Temp. | Humidity | Pressure | Rain* | Wind** | Luminosity | Snow |
|---|---|---|---|---|---|---|---|
| 1778097020 | 10.56° C | 92% | 1001.4 hPa | 0 mm | - | 35 W/m² | - |
| 1778096718 | 10.56° C | 92% | 1001.4 hPa | 0 mm | - | 36 W/m² | - |
| 1778096414 | 10.56° C | 93% | 1001.2 hPa | 0 mm | - | 47 W/m² | - |
| 1778096112 | 10.56° C | 92% | 1001.3 hPa | 0 mm | - | 38 W/m² | - |
| 1778095809 | 10.56° C | 93% | 1001.1 hPa | 0 mm | - | 47 W/m² | - |
| 1778095505 | 10.56° C | 92% | 1001.3 hPa | 0 mm | - | 55 W/m² | - |
| 1778095201 | 10.56° C | 93% | 1001.1 hPa | 0 mm | - | 44 W/m² | - |
| 1778094898 | 10.56° C | 93% | 1001.2 hPa | 0 mm | - | 49 W/m² | - |
| 1778094594 | 10.56° C | 93% | 1001.3 hPa | 0 mm | - | 51 W/m² | - |
| 1778094291 | 10.56° C | 94% | 1001.3 hPa | 0 mm | - | 56 W/m² | - |
| 1778093988 | 10.56° C | 94% | 1001.2 hPa | 0 mm | - | 64 W/m² | - |
| 1778093686 | 10.56° C | 94% | 1001.1 hPa | 0 mm | - | 65 W/m² | - |
| 1778093382 | 10.56° C | 94% | 1001.1 hPa | 0 mm | - | 64 W/m² | - |
| 1778093079 | 10.56° C | 94% | 1001.2 hPa | 0 mm | - | 53 W/m² | - |
| 1778092776 | 10.56° C | 94% | 1000.9 hPa | 0 mm | - | 57 W/m² | - |
| 1778092472 | 10.56° C | 94% | 1000.7 hPa | 0 mm | - | 56 W/m² | - |
| 1778092169 | 10.56° C | 94% | 1000.9 hPa | 0 mm | - | 51 W/m² | - |
| 1778091867 | 10.56° C | 94% | 1001.1 hPa | 0 mm | - | 49 W/m² | - |
| 1778091564 | 10.56° C | 94% | 1001 hPa | 0 mm | - | 53 W/m² | - |
| 1778091262 | 10.56° C | 94% | 1001 hPa | 0 mm | - | 45 W/m² | - |
| 1778090958 | 11.11° C | 94% | 1000.9 hPa | 0 mm | - | 54 W/m² | - |
| 1778090654 | 11.11° C | 94% | 1000.8 hPa | 0 mm | - | 70 W/m² | - |
| 1778090351 | 11.11° C | 94% | 1000.7 hPa | 0 mm | - | 72 W/m² | - |
| 1778090048 | 11.11° C | 93% | 1000.6 hPa | 0 mm | - | 119 W/m² | - |
| 1778089745 | 11.11° C | 93% | 1000.5 hPa | 0 mm | - | 111 W/m² | - |
* Rain latest hour (hover to see other rain measurements)
** Current wind speed in m/s (hover to see current wind gust speed)